Change the Weather History Date:

Saturday, April 12, 2014

  Actual Average Record
Temperature  
Mean Temperature 42 °F -  
Max Temperature 50 °F 48 °F 74 °F (1949)
Min Temperature 35 °F 28 °F 6 °F (1950)
Degree Days  
Heating Degree Days 22    
Moisture  
Dew Point 38 °F    
Average Humidity 81    
Maximum Humidity 100    
Minimum Humidity 53    
Precipitation  
Precipitation 0.41 in - - ()
Sea Level Pressure  
Sea Level Pressure 29.79 in    
Wind  
Wind Speed 9 mph (East)    
Max Wind Speed 20 mph    
Max Gust Speed 25 mph    
Visibility 10 miles    
Events Rain    
Averages and records for this station are not official NWS values.
T = Trace of Precipitation, MM = Missing Value Source: NWS Daily Summary

Daily Weather History Graph

Daily Weather History Graph

Search for Another Location

Airport or City:

Trip Planner

Search our weather history database for the weather conditions in past years. The results will help you decide how hot, cold, wet, or windy it might be!

Date:

Astronomy

Apr. 12, 2014 Rise Set
Actual Time 6:39 AM CDT 8:04 PM CDT
Civil Twilight 6:08 AM CDT 8:36 PM CDT
Nautical Twilight 5:30 AM CDT 9:14 PM CDT
Astronomical Twilight 4:49 AM CDT 9:54 PM CDT
Moon 5:36 PM CDT (4/12) 5:15 AM CDT (4/12)
Length of Visible Light 14h 27m
Length of Day
13h 25m
Waxing Gibbous, 93% of the Moon is Illuminated
Apr 12
Waxing Gibbous
Apr 15
Full
Apr 22
Last Quarter
Apr 29
New
May 6
First Quarter

Hourly Weather History & Observations

Time (CDT) Temp. Windchill Dew Point Humidity Pressure Visibility Wind Dir Wind Speed Gust Speed Precip Events Conditions
12:15 AM 46.4 °F 42.9 °F 30.2 °F 53% 29.90 in 10.0 mi East 6.9 mph - N/A   Mostly Cloudy
12:35 AM 46.4 °F 43.5 °F 30.2 °F 53% 29.92 in 10.0 mi ESE 5.8 mph - N/A   Drizzle
12:53 AM 44.6 °F 40.7 °F 33.8 °F 66% 29.92 in 10.0 mi SSE 6.9 mph - N/A Rain Light Rain
1:15 AM 42.8 °F 41.1 °F 35.6 °F 76% 29.92 in 10.0 mi ESE 3.5 mph - 0.02 in Rain Rain
1:35 AM 41.0 °F 36.4 °F 37.4 °F 87% 29.92 in 10.0 mi ESE 6.9 mph - 0.07 in Rain Rain
1:53 AM 39.2 °F 35.0 °F 37.4 °F 93% 29.91 in 10.0 mi ESE 5.8 mph - 0.12 in Rain Rain
2:15 AM 39.2 °F 35.0 °F 37.4 °F 93% 29.92 in 7.0 mi SSE 5.8 mph - 0.04 in Rain Rain
2:34 AM 39.2 °F 31.2 °F 39.2 °F 100% 29.91 in 7.0 mi SSE 13.8 mph - 0.09 in Rain Rain
2:53 AM 41.0 °F 34.7 °F 37.4 °F 87% 29.92 in 10.0 mi SE 10.4 mph - 0.13 in Rain Rain
3:15 AM 39.2 °F 32.0 °F 37.4 °F 93% 29.89 in 10.0 mi ESE 11.5 mph - 0.03 in Rain Rain
3:35 AM 39.2 °F 33.0 °F 37.4 °F 93% 29.89 in 10.0 mi East 9.2 mph - 0.05 in Rain Light Rain
3:53 AM 39.2 °F 35.0 °F 37.4 °F 93% 29.91 in 10.0 mi East 5.8 mph - 0.09 in Rain Light Rain
4:15 AM 39.2 °F 34.2 °F 37.4 °F 93% 29.90 in 10.0 mi East 6.9 mph - 0.04 in Rain Rain
4:35 AM 39.2 °F 33.0 °F 37.4 °F 93% 29.87 in 10.0 mi East 9.2 mph - 0.07 in Rain Light Rain
4:52 AM 39.2 °F 34.2 °F 37.4 °F 93% 29.88 in 10.0 mi East 6.9 mph - 0.07 in   Overcast
5:15 AM 39.2 °F 32.5 °F 37.4 °F 93% 29.85 in 10.0 mi East 10.4 mph - N/A Rain Light Rain
5:35 AM 39.2 °F 33.0 °F 37.4 °F 93% 29.84 in 10.0 mi ENE 9.2 mph - N/A   Overcast
5:52 AM 39.2 °F 32.5 °F 37.4 °F 93% 29.83 in 10.0 mi East 10.4 mph 17.3 mph N/A   Overcast
6:15 AM 39.2 °F 31.2 °F 37.4 °F 93% 29.81 in 10.0 mi East 13.8 mph 18.4 mph N/A   Overcast
6:35 AM 39.2 °F 32.0 °F 37.4 °F 93% 29.80 in 10.0 mi East 11.5 mph 17.3 mph N/A   Overcast
6:53 AM 39.2 °F 31.6 °F 37.4 °F 93% 29.80 in 10.0 mi East 12.7 mph 17.3 mph N/A   Overcast
7:15 AM 39.2 °F 32.5 °F 37.4 °F 93% 29.80 in 10.0 mi East 10.4 mph - N/A   Overcast
7:34 AM 39.2 °F 33.0 °F 37.4 °F 93% 29.79 in 10.0 mi East 9.2 mph - N/A   Overcast
7:53 AM 39.2 °F 33.0 °F 37.4 °F 93% 29.80 in 10.0 mi ENE 9.2 mph - N/A   Overcast
8:15 AM 39.2 °F 31.6 °F 37.4 °F 93% 29.79 in 10.0 mi East 12.7 mph - N/A   Mostly Cloudy
8:35 AM 39.2 °F 31.2 °F 37.4 °F 93% 29.78 in 10.0 mi East 13.8 mph 17.3 mph N/A   Overcast
8:53 AM 39.2 °F 31.2 °F 37.4 °F 93% 29.78 in 10.0 mi East 13.8 mph 18.4 mph N/A   Overcast
9:15 AM 41.0 °F 33.5 °F 37.4 °F 87% 29.78 in 10.0 mi East 13.8 mph 18.4 mph N/A   Overcast
9:35 AM 42.8 °F 36.6 °F 39.2 °F 87% 29.78 in 10.0 mi East 11.5 mph 20.7 mph N/A   Mostly Cloudy
9:53 AM 42.8 °F 34.5 °F 39.2 °F 87% 29.77 in 10.0 mi East 18.4 mph 23.0 mph N/A   Mostly Cloudy
10:15 AM 44.6 °F 36.6 °F 39.2 °F 81% 29.77 in 10.0 mi ESE 19.6 mph 25.3 mph N/A   Scattered Clouds
10:35 AM 44.6 °F 38.4 °F 39.2 °F 81% 29.78 in 10.0 mi East 12.7 mph - N/A   Mostly Cloudy
10:53 AM 46.4 °F 40.1 °F 39.2 °F 76% 29.77 in 10.0 mi East 15.0 mph 20.7 mph N/A   Overcast
11:15 AM 46.4 °F 40.1 °F 39.2 °F 76% 29.76 in 10.0 mi East 15.0 mph 23.0 mph N/A   Overcast
11:34 AM 46.4 °F 39.5 °F 39.2 °F 76% 29.76 in 10.0 mi ESE 17.3 mph 21.9 mph N/A   Overcast
11:53 AM 48.2 °F - 39.2 °F 71% 29.76 in 10.0 mi ESE 17.3 mph - N/A   Overcast
12:15 PM 48.2 °F - 39.2 °F 71% 29.76 in 10.0 mi East 12.7 mph 20.7 mph N/A   Overcast
12:35 PM 48.2 °F - 39.2 °F 71% 29.75 in 10.0 mi East 12.7 mph 21.9 mph N/A   Overcast
12:53 PM 48.2 °F - 39.2 °F 71% 29.74 in 10.0 mi ESE 15.0 mph - N/A   Overcast
1:14 PM 48.2 °F - 39.2 °F 71% 29.74 in 10.0 mi ESE 13.8 mph 18.4 mph N/A   Overcast
1:35 PM 48.2 °F - 39.2 °F 71% 29.74 in 10.0 mi East 13.8 mph 20.7 mph N/A   Overcast
1:52 PM 48.2 °F - 39.2 °F 71% 29.74 in 10.0 mi East 15.0 mph 19.6 mph N/A   Overcast
2:14 PM 48.2 °F - 39.2 °F 71% 29.74 in 10.0 mi East 12.7 mph 21.9 mph N/A   Overcast
2:35 PM 48.2 °F - 39.2 °F 71% 29.74 in 10.0 mi East 10.4 mph - N/A   Overcast
2:52 PM 48.2 °F - 39.2 °F 71% 29.74 in 10.0 mi East 9.2 mph - N/A   Overcast
3:15 PM 50.0 °F - 39.2 °F 66% 29.72 in 10.0 mi East 12.7 mph 16.1 mph N/A   Overcast
3:35 PM 50.0 °F - 39.2 °F 66% 29.73 in 10.0 mi East 10.4 mph 16.1 mph N/A   Overcast
3:53 PM 50.0 °F - 39.2 °F 66% 29.73 in 10.0 mi East 6.9 mph - N/A   Overcast
4:15 PM 50.0 °F - 39.2 °F 66% 29.73 in 10.0 mi ESE 6.9 mph - N/A   Overcast
4:35 PM 50.0 °F - 41.0 °F 71% 29.73 in 10.0 mi ESE 13.8 mph 17.3 mph N/A   Overcast
4:53 PM 50.0 °F - 39.2 °F 66% 29.74 in 10.0 mi ESE 8.1 mph - N/A   Overcast
5:15 PM 48.2 °F - 39.2 °F 71% 29.74 in 10.0 mi ESE 9.2 mph - N/A   Overcast
5:35 PM 48.2 °F - 39.2 °F 71% 29.74 in 10.0 mi East 6.9 mph - N/A   Overcast
5:53 PM 48.2 °F - 39.2 °F 71% 29.74 in 10.0 mi ENE 8.1 mph - N/A   Overcast
6:14 PM 48.2 °F - 39.2 °F 71% 29.74 in 10.0 mi East 9.2 mph - N/A   Overcast
6:34 PM 48.2 °F - 39.2 °F 71% 29.74 in 10.0 mi East 5.8 mph - N/A   Overcast
6:53 PM 48.2 °F - 39.2 °F 71% 29.74 in 10.0 mi East 6.9 mph - N/A   Overcast
7:15 PM 46.4 °F 41.5 °F 39.2 °F 76% 29.75 in 10.0 mi East 10.4 mph - N/A   Scattered Clouds
7:35 PM 46.4 °F 42.4 °F 39.2 °F 76% 29.75 in 10.0 mi East 8.1 mph - N/A   Clear
7:53 PM 44.6 °F 40.2 °F 37.4 °F 76% 29.75 in 10.0 mi East 8.1 mph - N/A   Clear
8:15 PM 44.6 °F 39.7 °F 37.4 °F 76% 29.75 in 10.0 mi East 9.2 mph - N/A   Clear
8:34 PM 42.8 °F 38.0 °F 37.4 °F 81% 29.75 in 10.0 mi East 8.1 mph - N/A   Clear
8:53 PM 42.8 °F 38.6 °F 37.4 °F 81% 29.76 in 10.0 mi East 6.9 mph - N/A   Clear
9:15 PM 41.0 °F 38.0 °F 37.4 °F 87% 29.77 in 10.0 mi East 4.6 mph - N/A   Clear
9:35 PM 41.0 °F 37.1 °F 35.6 °F 81% 29.79 in 10.0 mi East 5.8 mph - N/A   Clear
9:53 PM 39.2 °F 34.2 °F 35.6 °F 87% 29.79 in 10.0 mi East 6.9 mph - N/A   Clear
10:15 PM 39.2 °F 35.9 °F 35.6 °F 87% 29.79 in 10.0 mi East 4.6 mph - N/A   Clear
10:35 PM 39.2 °F 35.9 °F 35.6 °F 87% 29.78 in 10.0 mi East 4.6 mph - N/A   Mostly Cloudy
10:52 PM 37.4 °F - 35.6 °F 93% 29.78 in 10.0 mi Calm Calm - N/A   Scattered Clouds
11:15 PM 37.4 °F - 35.6 °F 93% 29.77 in 10.0 mi Calm Calm - N/A   Scattered Clouds
11:35 PM 35.6 °F 32.8 °F 33.8 °F 93% 29.77 in 10.0 mi NNE 3.5 mph - N/A   Scattered Clouds
11:53 PM 37.4 °F 33.8 °F 35.6 °F 93% 29.77 in 10.0 mi NNW 4.6 mph - N/A   Mostly Cloudy